カタログに戻る

KUIPER-00544

運用中通信VLEO
NORAD 69613·PAYLOAD·🇺🇸 United States

打ち上げ Jun 17, 2026 から Guiana Space Centre

Loading…

次のパス (今後24時間)

TLE

最新Source: CelesTrak SupGP

元期: Sep 14, 2026, 21:27 UTC

1 69613C 26140X   26257.89385417 -.01142100  00000+0 -46104-1 0  2578
2 69613  51.8799 324.9732 0005124 154.6054 235.5589 15.25354474    11

AllMySatでKUIPER-00544をリアルタイム追跡

Download on the App Store